Weather History for Clermont County, Batavia, OH

Change the Weather History Date:

Thursday, February 27, 2014

  Actual Average (KLUK) Record (KLUK)
Temperature  
Mean Temperature 22 °F -  
Max Temperature 28 °F 46 °F 70 °F (1976)
Min Temperature 15 °F 28 °F 4 °F (1963)
Degree Days  
Heating Degree Days 44    
Moisture  
Dew Point 2 °F    
Average Humidity 44    
Maximum Humidity 68    
Minimum Humidity 17    
Precipitation  
Precipitation 0.00 in - - ()
Sea Level Pressure  
Sea Level Pressure 29.95 in    
Wind  
Wind Speed 11 mph (WNW)    
Max Wind Speed 22 mph    
Max Gust Speed 31 mph    
Visibility 10 miles    
Events      
Averages and records for this station are not official NWS values.
T = Trace of Precipitation, MM = Missing Value Source: NWS Daily Summary

Daily Weather History Graph

Daily Weather History Graph

Search for Another Location

Airport:

Trip Planner

Search our weather history database for the weather conditions in past years. The results will help you decide how hot, cold, wet, or windy it might be!

Date:

Astronomy

Feb. 27, 2014 Rise Set
Actual Time 7:12 AM EST 6:27 PM EST
Civil Twilight 6:45 AM EST 6:54 PM EST
Nautical Twilight 6:14 AM EST 7:25 PM EST
Astronomical Twilight 5:43 AM EST 7:56 PM EST
Moon 5:43 AM EST (2/27) 4:52 PM EST (2/27)
Length of Visible Light 12h 08m
Length of Day
11h 15m
Waning Crescent, 4% of the Moon is Illuminated
Feb 27
Waning Crescent
Mar 1
New
Mar 8
First Quarter
Mar 16
Full
Mar 23
Last Quarter

Hourly Weather History & Observations

Time (EST) Temp. Windchill Dew Point Humidity Pressure Visibility Wind Dir Wind Speed Gust Speed Precip Events Conditions
12:18 AM 21.2 °F 7.3 °F 5.0 °F 50% 29.87 in 10.0 mi West 16.1 mph 21.9 mph N/A   Clear
12:37 AM 21.2 °F 9.5 °F 5.0 °F 50% 29.86 in 10.0 mi WSW 11.5 mph - N/A   Clear
12:57 AM 21.2 °F 8.9 °F 6.8 °F 54% 29.86 in 10.0 mi West 12.7 mph 18.4 mph N/A   Clear
1:18 AM 19.4 °F 6.6 °F 6.8 °F 58% 29.86 in 10.0 mi West 12.7 mph 18.4 mph N/A   Clear
1:37 AM 19.4 °F 7.9 °F 6.8 °F 58% 29.85 in 10.0 mi WSW 10.4 mph 16.1 mph N/A   Clear
1:57 AM 19.4 °F 7.9 °F 6.8 °F 58% 29.84 in 10.0 mi WSW 10.4 mph - N/A   Clear
2:17 AM 19.4 °F 8.6 °F 5.0 °F 54% 29.83 in 10.0 mi WSW 9.2 mph 16.1 mph N/A   Clear
2:37 AM 19.4 °F 8.6 °F 6.8 °F 58% 29.82 in 10.0 mi WSW 9.2 mph - N/A   Clear
2:57 AM 19.4 °F 8.6 °F 5.0 °F 54% 29.81 in 10.0 mi SW 9.2 mph 16.1 mph N/A   Clear
3:17 AM 21.2 °F 9.5 °F 5.0 °F 50% 29.80 in 10.0 mi SW 11.5 mph 16.1 mph N/A   Clear
3:37 AM 19.4 °F 9.5 °F 5.0 °F 54% 29.79 in 10.0 mi SW 8.1 mph - N/A   Clear
3:57 AM 19.4 °F 7.2 °F 5.0 °F 54% 29.78 in 10.0 mi SW 11.5 mph - N/A   Clear
4:17 AM 19.4 °F 7.2 °F 5.0 °F 54% 29.78 in 10.0 mi SW 11.5 mph - N/A   Clear
4:37 AM 19.4 °F 8.6 °F 6.8 °F 58% 29.78 in 10.0 mi SW 9.2 mph - N/A   Clear
4:57 AM 19.4 °F 8.6 °F 6.8 °F 58% 29.78 in 10.0 mi SW 9.2 mph - N/A   Clear
5:17 AM 19.4 °F 9.5 °F 6.8 °F 58% 29.78 in 10.0 mi SW 8.1 mph - N/A   Clear
5:37 AM 19.4 °F 9.5 °F 6.8 °F 58% 29.78 in 10.0 mi SW 8.1 mph - N/A   Clear
5:57 AM 19.4 °F 9.5 °F 8.6 °F 63% 29.78 in 10.0 mi SW 8.1 mph - N/A   Scattered Clouds
6:17 AM 19.4 °F 8.6 °F 8.6 °F 63% 29.78 in 10.0 mi SW 9.2 mph - N/A   Mostly Cloudy
6:37 AM 19.4 °F 7.9 °F 8.6 °F 63% 29.78 in 10.0 mi SW 10.4 mph - N/A   Overcast
6:57 AM 19.4 °F 8.6 °F 8.6 °F 63% 29.79 in 10.0 mi WSW 9.2 mph - N/A   Overcast
7:17 AM 19.4 °F 8.6 °F 10.4 °F 68% 29.80 in 10.0 mi SW 9.2 mph - N/A   Scattered Clouds
7:37 AM 19.4 °F 8.6 °F 10.4 °F 68% 29.80 in 10.0 mi WSW 9.2 mph - N/A   Scattered Clouds
7:58 AM 21.2 °F 11.7 °F 10.4 °F 63% 29.81 in 10.0 mi WSW 8.1 mph - N/A   Scattered Clouds
8:17 AM 23.0 °F 13.1 °F 10.4 °F 59% 29.82 in 10.0 mi WSW 9.2 mph - N/A   Mostly Cloudy
8:37 AM 24.8 °F 12.9 °F 12.2 °F 59% 29.83 in 10.0 mi West 13.8 mph 20.7 mph N/A   Overcast
8:58 AM 24.8 °F 12.4 °F 10.4 °F 54% 29.85 in 10.0 mi West 15.0 mph 25.3 mph N/A   Overcast
9:17 AM 26.6 °F 14.3 °F 10.4 °F 51% 29.85 in 10.0 mi West 16.1 mph 31.1 mph N/A   Overcast
9:37 AM 26.6 °F 13.8 °F 8.6 °F 47% 29.86 in 10.0 mi West 17.3 mph 29.9 mph N/A   Mostly Cloudy
9:58 AM 26.6 °F 13.8 °F 5.0 °F 40% 29.88 in 10.0 mi WNW 17.3 mph 31.1 mph N/A   Scattered Clouds
10:17 AM 28.4 °F 14.7 °F 1.4 °F 31% 29.90 in 10.0 mi WNW 21.9 mph 29.9 mph N/A   Clear
10:37 AM 26.6 °F 14.7 °F -4.0 °F 26% 29.91 in 10.0 mi WNW 15.0 mph 28.8 mph N/A   Clear
10:58 AM 28.4 °F 15.1 °F -9.4 °F 19% 29.93 in 10.0 mi WNW 20.7 mph 27.6 mph N/A   Clear
11:17 AM 26.6 °F 14.3 °F -13.0 °F 17% 29.94 in 10.0 mi WNW 16.1 mph 26.5 mph N/A   Clear
11:37 AM 28.4 °F 16.2 °F -9.4 °F 19% 29.95 in 10.0 mi WNW 17.3 mph 24.2 mph N/A   Clear
11:57 AM 26.6 °F 12.7 °F -7.6 °F 22% 29.97 in 10.0 mi WNW 20.7 mph 25.3 mph N/A   Clear
12:17 PM 26.6 °F 15.2 °F -5.8 °F 24% 29.98 in 10.0 mi NNW 13.8 mph 23.0 mph N/A   Clear
12:38 PM 28.4 °F 16.2 °F -4.0 °F 25% 29.98 in 10.0 mi West 17.3 mph - N/A   Clear
12:57 PM 28.4 °F 18.0 °F -0.4 °F 29% 29.98 in 10.0 mi WNW 12.7 mph 21.9 mph N/A   Clear
1:17 PM 28.4 °F 18.0 °F -0.4 °F 29% 29.98 in 10.0 mi WNW 12.7 mph 20.7 mph N/A   Clear
1:38 PM 28.4 °F 16.6 °F -0.4 °F 29% 29.99 in 10.0 mi West 16.1 mph 21.9 mph N/A   Clear
1:57 PM 28.4 °F 17.0 °F -4.0 °F 25% 29.99 in 10.0 mi NW 15.0 mph 23.0 mph N/A   Clear
2:17 PM 28.4 °F 16.6 °F -2.2 °F 27% 29.99 in 10.0 mi NNW 16.1 mph 24.2 mph N/A   Clear
2:37 PM 28.4 °F 18.0 °F -4.0 °F 25% 30.00 in 10.0 mi NW 12.7 mph 21.9 mph N/A   Clear
2:57 PM 28.4 °F 18.0 °F -0.4 °F 29% 30.01 in 10.0 mi NNW 12.7 mph 20.7 mph N/A   Clear
3:12 PM 28.4 °F 17.0 °F -2.2 °F 27% 30.01 in 10.0 mi WNW 15.0 mph 21.9 mph N/A   Clear
3:37 PM 28.4 °F 19.1 °F -2.2 °F 27% 30.02 in 10.0 mi NW 10.4 mph - N/A   Clear
3:57 PM 28.4 °F 19.1 °F -0.4 °F 29% 30.02 in 10.0 mi NW 10.4 mph 18.4 mph N/A   Clear
4:17 PM 28.4 °F 19.1 °F -0.4 °F 29% 30.02 in 10.0 mi NNW 10.4 mph 16.1 mph N/A   Clear
4:37 PM 26.6 °F 16.8 °F -2.2 °F 29% 30.03 in 10.0 mi NW 10.4 mph - N/A   Clear
4:57 PM 28.4 °F 20.4 °F -0.4 °F 29% 30.03 in 10.0 mi North 8.1 mph - N/A   Clear
5:17 PM 26.6 °F 19.1 °F -2.2 °F 29% 30.03 in 10.0 mi North 6.9 mph - N/A   Clear
5:37 PM 26.6 °F 18.2 °F -2.2 °F 29% 30.04 in 10.0 mi North 8.1 mph - N/A   Clear
5:57 PM 26.6 °F 20.0 °F -0.4 °F 31% 30.05 in 10.0 mi North 5.8 mph - N/A   Clear
6:17 PM 24.8 °F 16.1 °F -0.4 °F 34% 30.05 in 10.0 mi North 8.1 mph - N/A   Clear
6:37 PM 23.0 °F 14.7 °F -0.4 °F 36% 30.05 in 10.0 mi North 6.9 mph - N/A   Clear
6:57 PM 23.0 °F 13.9 °F -0.4 °F 36% 30.07 in 10.0 mi NNW 8.1 mph - N/A   Clear
7:17 PM 23.0 °F 15.8 °F -0.4 °F 36% 30.07 in 10.0 mi North 5.8 mph - N/A   Clear
7:37 PM 23.0 °F 17.0 °F -0.4 °F 36% 30.08 in 10.0 mi North 4.6 mph - N/A   Clear
7:57 PM 21.2 °F 13.6 °F -0.4 °F 39% 30.10 in 10.0 mi North 5.8 mph - N/A   Clear
8:18 PM 21.2 °F 13.6 °F -0.4 °F 39% 30.11 in 10.0 mi North 5.8 mph - N/A   Clear
8:37 PM 21.2 °F 13.6 °F 1.4 °F 42% 30.11 in 10.0 mi North 5.8 mph - N/A   Clear
8:57 PM 21.2 °F 11.7 °F 1.4 °F 42% 30.11 in 10.0 mi NNE 8.1 mph - N/A   Clear
9:18 PM 19.4 °F 11.5 °F 1.4 °F 46% 30.12 in 10.0 mi NNE 5.8 mph - N/A   Clear
9:37 PM 19.4 °F 9.5 °F 1.4 °F 46% 30.13 in 10.0 mi NNE 8.1 mph - N/A   Clear
9:57 PM 19.4 °F 10.4 °F 1.4 °F 46% 30.13 in 10.0 mi NNE 6.9 mph - N/A   Clear
10:18 PM 17.6 °F 8.2 °F 1.4 °F 49% 30.14 in 10.0 mi NNE 6.9 mph - N/A   Clear
10:37 PM 17.6 °F 7.3 °F 3.2 °F 53% 30.14 in 10.0 mi NE 8.1 mph - N/A   Clear
10:57 PM 17.6 °F 10.7 °F 5.0 °F 58% 30.15 in 10.0 mi NE 4.6 mph - N/A   Clear
11:18 PM 17.6 °F 8.2 °F 3.2 °F 53% 30.15 in 10.0 mi NE 6.9 mph - N/A   Clear
11:37 PM 15.8 °F 8.6 °F 5.0 °F 62% 30.16 in 10.0 mi NE 4.6 mph - N/A   Clear
11:57 PM 15.8 °F 10.2 °F 3.2 °F 58% 30.16 in 10.0 mi ENE 3.5 mph - N/A   Clear